Temperature
33 33 33 34 35 34 34 33 33 33 34 33 33 33 32 32 32 31 30 29 28 27 26 25 24 23 22 21 21 21 20 20 19 19 19 19 19 19 19 19 18 18 18 18
33 33 34 35 35 34 34 33 33 34 34 34 34 34 33 33 32 31 31 29 28 28 26 25 25 24 23 22 21 21 20 20 20 20 20 19 19 19 19 19 19 19 18 18
32 34 35 34 34 34 34 34 34 34 34 34 33 32 33 33 32 32 31 30 29 28 27 26 25 24 23 22 22 21 21 20 20 20 20 19 19 19 19 19 19 19 19 18
33 34 34 34 34 34 33 35 35 34 33 33 33 31 32 32 32 32 32 31 30 29 28 26 25 24 24 23 22 21 21 21 21 20 20 20 19 19 19 19 19 19 19 18
33 34 34 34 34 35 34 35 35 34 33 32 32 31 31 32 31 31 32 31 31 29 28 27 26 25 24 23 22 22 21 21 21 20 20 20 20 20 19 19 19 19 19 18
33 34 35 34 35 35 35 34 34 33 32 30 32 31 31 32 31 31 31 31 31 30 29 27 26 25 24 24 23 22 21 21 21 21 20 20 20 20 19 19 19 19 19 19
32 33 35 35 34 34 34 33 31 31 30 30 33 32 32 32 33 32 32 31 31 30 29 27 26 25 24 24 23 22 22 21 21 21 20 20 20 20 19 19 19 19 19 19
31 32 34 34 34 33 33 33 31 30 30 31 32 31 32 33 33 33 33 32 31 30 29 28 26 25 24 24 23 22 21 21 21 21 20 20 20 20 19 19 19 19 19 19
31 32 34 35 35 34 33 33 33 31 31 30 30 30 31 32 33 33 33 32 31 30 29 28 27 26 25 24 23 22 22 21 21 21 20 20 20 20 20 19 19 19 19 19
32 31 33 34 34 34 34 33 33 31 29 29 29 29 30 31 31 32 32 31 30 30 29 28 27 26 25 24 23 23 22 21 21 20 20 20 20 20 20 19 19 19 19 19
32 30 31 32 32 32 32 32 32 31 31 29 29 29 31 31 30 30 31 30 29 29 28 28 27 26 25 24 23 22 21 21 20 20 20 20 20 20 20 19 19 19 19 19
31 31 30 31 33 34 33 33 32 30 30 30 29 29 32 31 31 30 30 29 28 28 27 27 26 25 24 23 23 22 21 21 20 20 20 20 19 19 19 19 19 19 19 18
30 29 28 29 31 32 32 33 32 32 31 30 29 29 31 31 30 29 28 27 27 26 26 25 25 24 23 23 22 22 21 21 20 20 20 19 19 19 19 19 19 19 19 18
29 29 29 29 30 31 31 32 32 31 31 30 30 29 29 29 29 28 27 27 26 25 24 24 23 23 23 22 22 21 21 20 20 20 19 19 19 19 19 19 19 19 18 18
30 29 29 30 31 31 31 31 31 31 31 30 30 29 28 28 27 26 26 26 25 24 23 23 23 22 22 22 22 21 21 20 20 19 19 19 19 19 19 19 18 18 18 18
29 28 29 29 30 31 31 30 30 30 31 31 30 28 28 27 27 26 25 25 24 23 23 22 22 21 21 21 21 21 21 20 20 19 19 19 18 18 18 18 18 18 18 18
28 27 27 28 29 30 29 30 29 29 29 30 29 28 28 26 25 25 24 24 23 22 22 21 21 21 21 21 20 20 20 20 19 19 19 18 18 18 18 18 17 17 17 17
27 26 26 27 27 26 28 30 30 29 29 29 28 28 27 25 24 23 23 23 22 22 21 20 20 20 20 20 19 19 19 19 19 19 18 18 17 17 17 17 17 17 17 17
27 26 26 27 26 27 28 28 28 28 28 29 28 27 26 25 24 23 22 21 21 20 20 20 20 20 19 19 18 18 18 18 18 18 17 17 17 17 17 16 16 16 17 17
27 26 26 26 26 25 26 27 28 28 26 27 27 26 25 25 24 22 21 20 20 19 19 19 19 19 18 18 18 18 18 17 17 17 17 17 16 16 16 16 16 16 16 16
25 25 25 25 25 25 26 27 27 26 24 25 25 24 23 23 22 21 20 20 19 19 18 18 18 18 18 17 17 17 17 17 17 16 16 16 16 16 16 16 16 16 16 15
24 24 24 25 24 23 25 26 25 23 24 24 23 23 22 21 20 20 19 19 18 18 18 18 17 17 17 17 17 16 16 16 16 16 16 16 16 16 15 15 15 15 15 15
24 24 24 24 23 22 23 23 23 23 22 22 22 21 21 20 19 19 18 18 18 17 17 17 16 16 16 16 16 16 15 15 15 15 15 15 15 15 15 15 15 15 15 15
23 24 24 22 22 22 22 22 22 22 21 21 21 20 20 19 19 18 18 17 17 16 16 16 16 15 15 15 15 15 15 15 15 15 15 14 14 15 15 14 14 14 14 14
22 23 22 21 21 21 21 21 21 21 20 20 19 19 19 18 18 17 17 16 16 16 15 15 15 15 14 14 14 14 14 14 14 14 14 14 14 14 14 14 14 14 14 14
22 22 22 21 21 20 20 20 20 19 19 19 18 18 18 17 17 16 16 16 15 15 15 15 14 14 14 14 14 14 14 14 14 13 13 13 13 14 14 14 14 14 14 14
Wind_Speed
15 15 14 14 12 11 10 10 8 7 6 7 8 9 14 14 14 15 15 16 16 16 16 15 14 14 14 12 10 9 8 7 6 5 5 4 4 3 3 3 5 5 4 5
16 19 18 16 13 11 12 13 11 7 8 8 8 7 11 14 14 15 16 17 17 17 17 16 15 14 14 13 11 10 9 9 7 5 4 4 4 4 4 3 5 6 6 5
21 17 16 17 16 15 15 14 11 8 8 9 8 8 9 11 11 14 16 17 17 18 19 17 16 14 14 14 13 12 10 9 8 7 5 4 3 3 3 4 4 4 5 5
19 19 18 18 17 16 16 13 10 10 10 8 7 8 9 11 11 12 14 15 16 16 18 18 17 16 15 15 14 11 11 9 8 8 7 7 6 5 5 4 4 4 5 4
18 19 18 19 17 16 15 13 12 11 11 11 9 8 7 8 12 12 13 15 15 16 18 18 17 15 15 15 15 13 11 10 9 8 7 6 5 4 4 4 4 4 4 4
19 18 18 18 17 16 14 14 13 12 11 13 13 12 8 8 10 11 12 14 15 16 17 17 16 14 13 14 14 14 12 10 9 9 8 7 6 5 4 4 5 5 4 4
19 20 18 16 17 16 15 13 11 11 11 13 13 13 7 8 10 12 13 14 15 15 16 16 17 16 14 14 13 13 13 11 10 10 8 7 6 5 5 5 5 4 4 4
17 17 18 17 17 16 17 17 13 13 12 11 10 9 6 4 6 8 11 14 15 15 16 16 16 15 14 14 14 14 13 11 10 9 8 6 6 5 5 5 4 4 3 3
14 16 16 16 16 18 18 16 16 15 15 12 8 6 7 4 6 6 8 12 15 14 15 16 15 15 14 13 12 13 13 11 10 10 8 7 6 5 5 4 4 3 2 3
14 14 15 14 14 17 19 16 12 13 11 13 10 9 8 8 7 7 6 7 9 11 13 14 14 14 13 12 11 12 13 11 10 9 8 8 7 5 4 4 4 3 2 2
16 15 15 15 16 17 16 16 13 10 10 12 11 8 5 5 4 5 6 6 7 10 11 12 12 11 11 11 11 10 11 11 10 9 7 6 7 6 5 4 3 3 3 3
14 14 15 15 15 17 17 17 16 12 10 12 12 7 2 3 4 4 5 7 7 6 8 9 11 11 9 9 9 9 9 10 10 9 8 7 6 6 5 5 4 3 3 3
8 10 13 15 14 16 16 15 15 14 12 12 13 7 2 2 5 5 7 7 7 7 6 7 9 10 8 8 8 8 8 8 9 9 8 7 7 6 6 5 4 4 3 3
8 13 15 16 11 11 14 16 15 15 13 12 11 7 2 1 5 5 6 8 8 8 6 6 7 7 6 6 7 7 8 7 8 8 8 8 7 6 5 4 4 4 4 4
9 14 16 18 16 14 14 14 14 14 14 13 9 6 3 2 6 5 6 8 8 8 7 6 7 7 6 5 5 6 6 6 6 7 7 7 6 5 5 5 5 5 5 5
10 13 14 17 18 15 14 12 12 14 14 13 10 4 4 4 6 6 5 8 7 6 5 5 6 6 6 5 5 4 4 5 5 6 6 6 5 5 5 5 5 5 5 4
10 11 14 16 16 15 16 11 11 11 8 8 7 3 6 6 7 7 7 8 7 6 5 4 4 4 5 5 5 4 3 3 4 4 4 5 5 5 5 5 5 5 4 4
11 10 10 14 13 17 10 7 8 8 6 2 4 5 6 8 8 7 7 8 6 5 5 4 3 4 4 4 4 3 3 2 3 3 4 4 4 4 4 4 4 4 4 4
11 9 10 12 14 13 8 5 4 5 2 1 4 5 7 8 9 8 8 7 7 6 5 4 3 3 4 4 3 2 2 2 2 3 3 3 4 3 3 3 3 3 3 3
11 9 11 12 13 12 5 3 5 5 3 3 5 6 7 6 4 4 6 6 6 6 5 4 4 4 3 3 2 2 2 1 0 1 1 1 2 3 3 3 2 2 3 3
11 11 14 14 13 5 3 4 5 5 1 4 7 8 7 7 5 5 6 6 6 5 5 4 4 4 3 2 2 2 2 1 0 0 0 1 1 2 2 2 2 2 3 3
9 9 10 11 11 4 5 3 2 4 6 7 8 8 8 8 8 7 7 6 6 5 5 5 4 4 3 3 3 2 2 2 1 1 0 1 1 2 2 1 2 2 3 3
6 4 4 2 1 4 5 6 6 6 7 7 7 7 7 7 7 6 6 5 5 5 4 4 4 4 4 3 2 2 2 2 2 2 2 2 2 2 2 2 3 3 2 3
3 2 1 1 2 4 5 5 6 7 6 6 7 7 6 5 5 5 5 4 4 4 3 3 3 3 3 3 2 1 1 2 2 2 2 2 3 3 2 2 3 2 2 2
3 3 1 2 3 4 4 4 5 6 6 7 7 6 5 4 4 4 3 3 3 3 3 3 3 2 2 2 2 2 2 1 2 3 3 3 3 2 2 3 2 2 1 1
4 3 3 1 2 2 3 3 4 5 5 6 6 6 5 5 4 3 3 3 2 2 2 2 2 2 3 2 2 3 3 1 3 3 3 3 3 2 3 3 2 1 2 2
Wind_Direction
229 235 242 246 248 250 261 261 244 229 216 244 232 177 173 181 181 177 175 174 176 178 173 168 171 167 164 161 162 166 169 161 165 170 175 174 174 177 167 163 154 162 178 180
235 233 241 252 254 244 254 259 254 236 208 234 239 207 184 185 192 186 183 178 178 177 172 171 174 172 169 166 167 169 171 169 176 174 181 175 172 180 172 167 153 169 182 190
234 237 236 244 250 252 250 252 255 255 237 237 251 237 199 192 206 194 186 183 181 179 174 174 178 177 173 171 172 176 176 174 182 174 176 177 166 186 171 168 162 176 192 199
239 241 243 245 244 248 254 255 259 260 259 255 255 255 214 196 202 204 195 185 182 179 174 174 178 180 179 175 176 171 172 173 177 179 187 189 189 192 182 169 172 179 191 195
241 240 242 245 248 249 256 263 261 260 260 262 246 259 247 200 202 204 202 189 185 178 175 175 180 180 179 177 175 171 169 173 178 186 190 199 199 189 178 164 173 180 188 196
251 247 244 246 250 253 258 262 261 259 260 254 242 240 238 213 198 189 202 194 183 177 172 170 173 170 175 174 173 170 166 173 178 186 192 198 204 194 181 175 178 190 193 201
243 245 241 241 247 243 242 247 249 248 243 248 247 245 232 201 194 191 189 189 179 173 170 169 169 170 174 172 170 167 166 175 181 187 192 192 197 194 187 187 194 207 197 195
237 239 235 231 236 242 236 239 240 249 255 257 258 258 250 204 190 192 181 175 173 172 172 170 171 170 173 174 169 165 166 173 180 184 185 187 184 195 196 204 206 208 205 191
246 246 239 232 230 236 243 242 244 250 261 271 268 271 275 224 205 195 184 171 169 171 173 170 170 170 171 173 169 165 163 170 178 184 181 181 184 196 200 198 206 213 194 194
256 263 253 239 234 232 241 244 247 249 254 263 262 249 237 199 204 185 174 157 155 163 168 164 165 168 170 170 163 163 163 170 174 180 183 185 190 193 191 195 209 201 197 193
247 258 256 240 230 235 230 237 245 258 263 263 265 261 248 171 177 178 179 155 148 156 163 159 154 155 159 161 162 160 161 166 171 177 180 182 182 187 187 196 205 198 197 190
242 249 257 249 240 240 241 236 237 242 250 263 269 264 254 172 161 152 128 110 118 131 143 141 141 141 152 157 158 162 164 171 174 174 175 178 177 180 189 196 201 196 194 198
253 248 249 248 239 229 236 238 239 245 248 248 256 246 221 163 117 114 112 116 115 108 108 118 130 137 150 154 155 161 166 172 173 172 171 172 185 188 193 194 196 197 196 205
257 252 250 249 247 244 240 241 242 242 248 251 251 239 217 86 91 88 102 111 112 114 107 115 126 127 134 145 151 158 169 171 171 170 173 179 185 186 189 190 194 198 201 206
253 250 252 260 261 255 249 246 243 245 250 256 250 224 181 146 112 109 114 110 114 115 124 125 125 128 134 133 142 147 156 161 166 171 177 179 177 177 183 192 198 200 205 213
249 259 258 258 260 261 255 246 248 254 253 252 252 205 154 104 102 113 110 109 112 112 115 120 119 135 140 137 139 139 154 156 160 170 175 172 177 184 192 197 202 205 208 215
244 251 256 256 257 258 251 240 240 243 252 253 257 191 135 116 114 117 114 115 112 110 111 105 116 124 123 126 126 131 122 130 150 162 167 167 179 190 195 204 207 215 219 221
247 254 252 254 256 249 254 248 235 236 244 226 143 143 126 114 108 90 92 99 103 109 103 90 90 102 107 103 113 116 133 138 152 164 168 167 184 198 199 201 214 225 230 231
239 240 247 249 247 248 255 262 271 267 236 126 147 139 125 122 118 98 78 82 90 83 81 82 88 93 108 105 96 115 145 160 176 176 181 180 187 196 200 206 223 236 239 244
229 221 237 247 251 248 234 269 281 257 214 67 101 111 121 126 125 97 77 74 80 78 72 60 59 59 78 96 121 121 120 107 154 218 218 207 198 203 208 204 220 235 242 250
226 224 231 243 251 257 310 288 262 234 163 71 88 97 95 86 79 95 91 78 67 69 66 60 55 52 59 73 102 114 101 92 70 14 311 211 186 213 214 200 221 238 248 254
238 233 236 244 246 243 350 343 32 80 79 82 85 85 89 88 85 89 85 80 75 66 54 55 62 50 45 63 74 74 45 22 21 23 339 327 270 255 241 224 247 247 243 251
245 256 249 258 211 70 41 57 75 84 85 82 88 87 85 94 95 96 92 83 77 74 61 53 57 50 40 51 55 48 21 16 2 351 341 334 295 265 258 243 255 255 249 251
247 294 216 128 110 94 75 66 73 83 89 88 87 87 87 94 97 97 93 83 73 66 55 54 66 51 33 32 23 9 11 15 345 329 320 299 284 268 269 260 261 261 259 264
307 306 236 153 117 94 85 66 68 78 86 85 85 83 80 87 88 92 91 80 75 63 47 34 36 33 14 17 9 0 12 359 306 294 293 292 272 259 266 265 276 276 288 266
288 293 260 220 142 145 136 101 86 81 87 89 83 76 75 80 79 90 94 82 72 57 42 36 9 353 352 355 7 358 345 317 286 281 278 274 279 278 262 247 270 334 250 220
Height
1463 1465 1465 1459 1454 1456 1458 1463 1467 1463 1457 1462 1463 1464 1466 1470 1474 1479 1484 1489 1494 1498 1503 1507 1510 1513 1516 1518 1520 1522 1524 1526 1527 1529 1531 1532 1533 1535 1536 1537 1538 1538 1539 1540
1462 1462 1456 1452 1451 1453 1457 1462 1462 1456 1452 1457 1459 1460 1460 1465 1468 1473 1478 1483 1488 1494 1499 1503 1507 1511 1513 1515 1518 1520 1522 1524 1526 1528 1529 1531 1533 1534 1535 1536 1537 1538 1539 1540
1460 1454 1450 1451 1453 1455 1456 1458 1458 1457 1453 1452 1458 1465 1461 1461 1465 1469 1473 1478 1483 1488 1493 1498 1503 1507 1510 1513 1515 1518 1520 1522 1524 1526 1528 1531 1532 1533 1535 1536 1536 1537 1538 1539
1452 1448 1448 1450 1451 1452 1458 1447 1448 1453 1460 1463 1463 1480 1464 1459 1463 1466 1469 1473 1477 1483 1489 1494 1499 1503 1507 1510 1513 1515 1518 1520 1522 1525 1527 1529 1530 1532 1533 1534 1535 1536 1537 1538
1450 1446 1447 1450 1447 1445 1448 1442 1445 1451 1459 1466 1464 1477 1469 1457 1464 1464 1465 1468 1473 1478 1484 1490 1495 1499 1503 1507 1510 1513 1515 1518 1520 1523 1525 1527 1529 1531 1532 1533 1534 1535 1536 1537
1445 1441 1441 1442 1441 1441 1442 1445 1447 1450 1460 1478 1464 1470 1472 1458 1458 1458 1461 1463 1468 1473 1479 1485 1491 1496 1500 1504 1507 1510 1512 1515 1518 1520 1523 1525 1527 1529 1530 1531 1532 1533 1534 1535
1449 1441 1437 1438 1442 1441 1444 1457 1472 1479 1480 1476 1455 1459 1458 1446 1445 1449 1454 1458 1463 1469 1476 1481 1487 1491 1496 1500 1504 1507 1509 1512 1515 1518 1520 1523 1524 1526 1528 1529 1530 1531 1532 1533
1455 1451 1436 1435 1440 1445 1444 1451 1473 1488 1484 1470 1456 1461 1451 1440 1441 1444 1448 1453 1459 1466 1472 1478 1483 1488 1493 1497 1501 1503 1506 1509 1512 1515 1517 1520 1522 1524 1525 1527 1528 1529 1530 1531
1447 1446 1430 1429 1431 1437 1444 1445 1443 1459 1466 1474 1467 1463 1452 1441 1442 1444 1446 1450 1456 1462 1468 1474 1480 1485 1490 1494 1497 1500 1503 1506 1509 1512 1515 1517 1519 1521 1523 1525 1526 1527 1528 1529
1437 1447 1433 1428 1430 1432 1435 1438 1446 1457 1476 1483 1474 1469 1460 1448 1446 1444 1447 1450 1456 1461 1465 1471 1476 1482 1487 1492 1495 1498 1500 1503 1506 1510 1512 1515 1517 1518 1520 1522 1523 1524 1525 1526
1434 1445 1440 1433 1435 1438 1438 1441 1444 1449 1455 1474 1483 1473 1443 1442 1444 1447 1449 1452 1456 1460 1464 1468 1474 1480 1485 1489 1493 1496 1498 1501 1504 1507 1509 1512 1514 1515 1517 1519 1520 1521 1522 1523
1433 1440 1445 1435 1425 1425 1428 1433 1440 1456 1461 1459 1467 1466 1438 1438 1442 1446 1449 1453 1457 1460 1465 1468 1473 1478 1483 1487 1490 1493 1496 1499 1501 1504 1507 1509 1510 1513 1514 1515 1517 1518 1519 1520
1435 1443 1454 1449 1438 1428 1429 1429 1431 1437 1447 1456 1465 1464 1439 1440 1444 1448 1451 1456 1459 1462 1466 1469 1473 1477 1481 1484 1488 1491 1494 1496 1499 1501 1504 1506 1507 1510 1511 1512 1514 1515 1516 1517
1436 1440 1446 1452 1443 1432 1434 1432 1431 1437 1448 1453 1453 1453 1445 1445 1448 1452 1454 1457 1461 1464 1467 1470 1472 1476 1480 1484 1486 1489 1492 1494 1496 1499 1500 1502 1504 1506 1508 1509 1510 1511 1512 1513
1434 1439 1436 1432 1426 1425 1430 1431 1432 1436 1438 1445 1446 1448 1449 1448 1451 1456 1457 1459 1463 1465 1468 1470 1472 1475 1479 1482 1485 1488 1490 1492 1494 1496 1497 1499 1501 1503 1505 1506 1507 1508 1509 1510
1433 1438 1437 1436 1427 1425 1429 1429 1432 1435 1434 1436 1440 1447 1446 1448 1452 1456 1458 1460 1463 1467 1469 1471 1473 1476 1478 1481 1484 1486 1488 1490 1492 1493 1495 1497 1498 1500 1502 1503 1504 1505 1505 1506
1435 1440 1444 1442 1432 1431 1438 1430 1432 1434 1434 1435 1443 1446 1446 1450 1455 1458 1460 1462 1465 1468 1471 1472 1474 1475 1478 1480 1482 1484 1486 1488 1490 1491 1493 1494 1495 1497 1498 1500 1501 1501 1502 1503
1437 1440 1441 1441 1442 1454 1435 1423 1425 1430 1432 1432 1438 1443 1447 1451 1458 1461 1462 1464 1466 1469 1471 1472 1475 1476 1478 1480 1481 1483 1485 1486 1487 1489 1491 1491 1492 1494 1495 1495 1497 1498 1498 1499
1431 1438 1442 1442 1446 1443 1433 1428 1430 1435 1437 1434 1438 1443 1448 1452 1457 1463 1465 1467 1469 1471 1473 1474 1475 1476 1478 1479 1480 1482 1484 1484 1486 1487 1488 1489 1490 1491 1492 1492 1493 1494 1494 1495
1428 1432 1441 1441 1448 1452 1441 1431 1431 1434 1443 1439 1441 1446 1449 1452 1458 1465 1467 1469 1470 1471 1473 1475 1476 1477 1478 1479 1480 1481 1482 1483 1484 1484 1485 1487 1487 1487 1488 1489 1489 1490 1490 1491
1435 1436 1439 1440 1444 1442 1435 1432 1433 1448 1451 1444 1446 1450 1453 1457 1461 1467 1468 1470 1472 1472 1474 1475 1477 1478 1479 1479 1480 1481 1481 1482 1483 1483 1483 1484 1483 1484 1485 1486 1486 1486 1486 1486
1437 1439 1439 1439 1446 1452 1439 1436 1442 1448 1446 1447 1450 1454 1457 1460 1464 1466 1468 1470 1472 1473 1475 1476 1477 1478 1479 1479 1479 1479 1480 1481 1481 1481 1481 1480 1481 1481 1482 1483 1483 1483 1483 1482
1434 1436 1436 1441 1448 1446 1444 1444 1446 1448 1449 1452 1454 1458 1460 1463 1466 1468 1470 1472 1473 1475 1475 1476 1477 1478 1478 1478 1478 1478 1479 1479 1479 1478 1478 1478 1479 1479 1480 1480 1480 1480 1479 1479
1434 1433 1435 1441 1444 1445 1447 1449 1450 1452 1454 1455 1458 1460 1463 1465 1467 1469 1471 1472 1474 1475 1476 1477 1477 1477 1477 1477 1477 1477 1477 1476 1476 1476 1476 1476 1476 1476 1477 1477 1477 1477 1477 1477
1436 1436 1438 1443 1446 1448 1451 1452 1453 1455 1456 1458 1460 1462 1464 1466 1467 1469 1470 1472 1473 1475 1476 1476 1476 1476 1476 1476 1476 1475 1475 1474 1474 1474 1474 1474 1474 1474 1474 1474 1474 1474 1474 1474
1439 1440 1442 1445 1447 1449 1453 1454 1455 1457 1458 1460 1462 1463 1465 1466 1467 1469 1470 1472 1473 1474 1474 1474 1475 1475 1475 1474 1473 1472 1472 1472 1472 1472 1472 1472 1472 1471 1471 1472 1471 1471 1472 1472